Weather History for Havre, MT

Change the Weather History Date:

Sunday, November 27, 2011

  Actual Average Record
Temperature  
Mean Temperature 53 °F 25 °F  
Max Temperature 62 °F 36 °F 63 °F (1949)
Min Temperature 43 °F 14 °F -30 °F (1887)
Degree Days  
Heating Degree Days 12 40  
Month to date heating degree days 913 921  
Since 1 July heating degree days 1638 1920  
Cooling Degree Days 0 0  
Month to date cooling degree days 0 0  
Year to date cooling degree days 370 387  
Growing Degree Days 2 (Base 50)    
Moisture  
Dew Point 25 °F    
Average Humidity 36    
Maximum Humidity 49    
Minimum Humidity 23    
Precipitation  
Precipitation 0.00 in 0.01 in 0.34 in (1905)
Month to date precipitation 0.11 0.39  
Year to date precipitation 11.52 10.76  
Snow  
Snow 0.00 in 0.20 in 5.00 in (2005)
Month to date snowfall T 4.6  
Since 1 July snowfall T 6.9  
Since 1 September snowfall T 6.9  
Snow Depth 0.00 in    
Sea Level Pressure  
Sea Level Pressure 29.91 in    
Wind  
Wind Speed 21 mph (SW)    
Max Wind Speed 41 mph    
Max Gust Speed 48 mph    
Visibility 10 miles    
Events      
T = Trace of Precipitation, MM = Missing Value Source: NWS Daily Summary

Daily Weather History Graph

Daily Weather History Graph

Search for Another Location

Airport:

Trip Planner

Search our weather history database for the weather conditions in past years. The results will help you decide how hot, cold, wet, or windy it might be!

Date:

Astronomy

Nov. 27, 2011 Rise Set
Actual Time 7:44 AM MST 4:28 PM MST
Civil Twilight 7:08 AM MST 5:04 PM MST
Nautical Twilight 6:29 AM MST 5:43 PM MST
Astronomical Twilight 5:52 AM MST 6:20 PM MST
Moon 10:14 AM MST (11/27) 7:09 PM MST (11/27)
Length of Visible Light 9h 55m
Length of Day
8h 44m
Waxing Crescent, 9% of the Moon is Illuminated
Nov 27
Waxing Crescent
Dec 2
First Quarter
Dec 10
Full
Dec 17
Last Quarter
Dec 24
New

Hourly Weather History & Observations

Time (MST) Temp. Windchill Dew Point Humidity Pressure Visibility Wind Dir Wind Speed Gust Speed Precip Events Conditions
12:53 AM 43.0 °F 34.5 °F 25.0 °F 49% 30.15 in 10.0 mi SW 19.6 mph 25.3 mph N/A   Clear
1:53 AM 44.1 °F 35.0 °F 25.0 °F 47% 30.12 in 10.0 mi SW 24.2 mph 31.1 mph N/A   Clear
2:53 AM 44.1 °F 35.4 °F 26.1 °F 49% 30.11 in 10.0 mi SW 21.9 mph 29.9 mph N/A   Clear
3:53 AM 45.0 °F 37.4 °F 27.0 °F 49% 30.08 in 10.0 mi SW 18.4 mph - N/A   Clear
4:53 AM 46.0 °F 40.2 °F 27.0 °F 47% 30.05 in 10.0 mi SW 12.7 mph - N/A   Clear
5:53 AM 46.9 °F - 28.0 °F 48% 30.04 in 10.0 mi SW 17.3 mph 26.5 mph N/A   Clear
6:53 AM 48.9 °F - 28.0 °F 44% 30.01 in 10.0 mi SW 25.3 mph - N/A   Clear
7:53 AM 50.0 °F - 28.0 °F 43% 30.01 in 10.0 mi WSW 18.4 mph - N/A   Clear
8:53 AM 50.0 °F - 28.0 °F 43% 30.01 in 10.0 mi SW 13.8 mph 24.2 mph N/A   Clear
9:53 AM 53.6 °F - 26.6 °F 35% 29.94 in 10.0 mi SW 23.0 mph - N/A   Clear
10:53 AM 55.9 °F - 24.1 °F 29% 29.91 in 10.0 mi SW 23.0 mph 35.7 mph N/A   Clear
11:53 AM 60.1 °F - 23.0 °F 24% 29.89 in 10.0 mi SW 27.6 mph 36.8 mph N/A   Clear
12:53 PM 61.0 °F - 23.0 °F 23% 29.85 in 10.0 mi SW 21.9 mph 31.1 mph N/A   Clear
1:53 PM 60.1 °F - 23.0 °F 24% 29.81 in 10.0 mi SW 20.7 mph 27.6 mph N/A   Clear
2:53 PM 61.0 °F - 23.0 °F 23% 29.76 in 10.0 mi SW 23.0 mph 32.2 mph N/A   Clear
3:53 PM 60.1 °F - 23.0 °F 24% 29.76 in 10.0 mi SW 26.5 mph 33.4 mph N/A   Clear
4:53 PM 57.0 °F - 23.0 °F 27% 29.75 in 10.0 mi WSW 19.6 mph - N/A   Clear
5:53 PM 59.0 °F - 23.0 °F 25% 29.74 in 10.0 mi SW 27.6 mph 36.8 mph N/A   Clear
6:53 PM 57.0 °F - 23.0 °F 27% 29.74 in 10.0 mi WSW 21.9 mph - N/A   Clear
7:53 PM 57.9 °F - 21.9 °F 25% 29.73 in 10.0 mi SW 27.6 mph 36.8 mph N/A   Clear
8:53 PM 55.0 °F - 21.9 °F 28% 29.76 in 10.0 mi SW 23.0 mph 27.6 mph N/A   Clear
9:53 PM 54.0 °F - 21.9 °F 29% 29.79 in 10.0 mi WSW 23.0 mph 31.1 mph N/A   Clear
10:53 PM 51.1 °F - 27.0 °F 39% 29.85 in 10.0 mi West 15.0 mph 26.5 mph N/A   Clear
11:53 PM 51.1 °F - 30.9 °F 46% 29.89 in 10.0 mi WSW 19.6 mph 27.6 mph N/A   Partly Cloudy